Regional Weather Roundup
Issued by NWS Green Bay, WI

Home | Current Version | Previous Version | Text Only | Print | Product List | Glossary On
Versions: 1 2 3 4 5 6 7 8 9 10 11 12 13 14 15 16 17 18 19 20 21 22 23 24 25 26 27 28 29 30 31 32 33 34 35 36 37 38 39 40 41 42 43 44 45 46 47 48 49 50
000
ASUS43 KGRB 200710
RWRGRB

NORTH-CENTRAL AND NORTHEAST WISCONSIN REGIONAL WEATHER ROUNDUP
NATIONAL WEATHER SERVICE GREEN BAY WI
100 AM CST SAT DEC 20 2014

WIZ005-009-010>012-018-019-200800-
NORTH CENTRAL WISCONSIN

CITY           SKY/WX    TMP DP  RH WIND       PRES   REMARKS
IRONWOOD       CLOUDY    25  21  86 CALM      30.14F
MANITOWISH WTR CLOUDY    21  21  99 CALM      30.16S
ARBOR VITAE    CLOUDY    23  21  91 CALM      30.16F
EAGLE RIVER    CLOUDY    19  18  98 CALM      30.17S FOG
LAND O LAKES   CLOUDY    19  17  93 CALM      30.18S FOG
RHINELANDER    CLOUDY    20  18  92 SE3       30.18S
PHILLIPS       CLOUDY    23  20  91 S3        30.16F
ANTIGO         CLOUDY    17  16  95 CALM      30.20S
TOMAHAWK       CLOUDY    22  20  91 CALM      30.18F
MERRILL        CLOUDY    23  21  91 S5        30.21S
$$

WIZ013-073-200800-
NORTHEAST WISCONSIN

CITY           SKY/WX    TMP DP  RH WIND       PRES   REMARKS
IRON MOUNTAIN  CLOUDY    14  10  84 CALM      30.21S
MARINETTE      PTCLDY    14  10  85 CALM      30.26R
OCONTO         PTCLDY    13  12  96 CALM      30.27S
$$

WIZ017-030-035>037-045-200800-
CENTRAL WISCONSIN

CITY           SKY/WX    TMP DP  RH WIND       PRES   REMARKS
MEDFORD        CLOUDY    23  20  91 S6        30.19S
WAUSAU         CLOUDY    23  20  88 S7        30.21S
MOSINEE        CLOUDY    23  23 100 S5        30.23S
MARSHFIELD     CLOUDY    24  20  84 S8        30.21S
WISC RAPIDS    CLOUDY    23  19  85 S5        30.25F
STEVENS POINT  CLOUDY    22  19  90 S5        30.24S
WAUPACA        CLOUDY    26  21  81 CALM      30.26S
SHAWANO        MOCLDY    19  17  89 CALM      30.26S
CLINTONVILLE   MOCLDY    19  18  93 CALM      30.26S
$$

WIZ038-039-048-051-200800-
FOX VALLEY

CITY           SKY/WX    TMP DP  RH WIND       PRES   REMARKS
NWS GREEN BAY  MOCLDY    20  18  92 CALM      30.27S
APPLETON       MOCLDY    21  18  86 CALM      30.26S
OSHKOSH        PTCLDY    22  17  81 W5        30.26S
FOND DU LAC    PTCLDY    20  16  84 CALM      30.26S
$$

WIZ022-050-052-200800-
EAST CENTRAL WISCONSIN

CITY           SKY/WX    TMP DP  RH WIND       PRES   REMARKS
STURGEON BAY   PTCLDY    19  18  93 CALM      30.28S
MANITOWOC      CLOUDY    28  24  85 N6        30.26F
SHEBOYGAN      CLOUDY    27  21  78 NW5       30.25F
$$

LMZ563-521-522-541>543-200800-
LAKESHORE

STATION/POSITION TIME  TEMP    WIND        PRES    VSBY  WAVE
                       AIR SEA DIR/SP/G                  HT/PER
                 (UTC) (F)     (DEG/KT/KT) (MB)    (MI)  (FT/S)
SHEBOYGAN LKSHOR 0700   29 34  290/  8/  9 1025.6F
KEWAUNEE LKSHORE 0700   27     300/  4/  5 1024.0S
NORTHPORT PIER   0700   22     230/  2/  4 1024.7F
CHAMBERS ISLAND  0700   25     210/  3/  5 1024.7S
MENOMINEE LKSHOR 0700   23     230/  3/  4 1025.5R
$$



USA.gov is the U.S. government's official web portal to all federal, state and local government web resources and services.